Regional Weather Roundup
Issued by NWS Sioux Falls, SD

Home | Current Version | Previous Version | Graphics & Text | Print | Product List | Glossary Off
Versions: 1 2 3 4 5 6 7 8 9 10 11 12 13 14 15 16 17 18 19 20 21 22 23 24 25 26 27 28 29 30 31 32 33 34 35 36 37 38 39 40 41 42 43 44 45 46 47 48 49 50

000
ASUS43 KFSD 221210
RWRFSD

WEATHER ROUNDUP FOR SE SOUTH DAKOTA/SW MINNESOTA/NW IOWA
NATIONAL WEATHER SERVICE SIOUX FALLS SD
600 AM CST WED FEB 22 2017

NOTE: "FAIR" INDICATES FEW OR NO CLOUDS BELOW 12,000 FEET WITH NO
SIGNIFICANT WEATHER AND OR OBSTRUCTIONS TO VISIBILITY.


SDZ038>040-050-052>070-221300-
SOUTHEAST SOUTH DAKOTA

CITY           SKY/WX    TMP DP  RH WIND       PRES   REMARKS
BROOKINGS      CLOUDY    38  35  89 CALM      29.60S
CHAMBERLAIN    LGT RAIN  45  40  85 N6        29.66F
6HR MIN TEMP:  39; 6HR MAX TEMP:  54;

HURON          LGT RAIN  44  41  89 S7        29.63S
6HR MIN TEMP:  37; 6HR MAX TEMP:  49; 6HR PCP: TRACE;

MADISON        FAIR      41  41 100 W10       29.61R
MITCHELL       CLOUDY    45  38  76 W12       29.64R
6HR MIN TEMP:  36; 6HR MAX TEMP:  49;

SIOUX FALLS    PTCLDY    37  33  85 W3        29.61R
6HR MIN TEMP:  34; 6HR MAX TEMP:  50; 6HR PCP: TRACE;

WINNER         FAIR      47  37  68 S9        29.66F
YANKTON        CLEAR     46  34  61 W12       29.62R
$$

MNZ071-072-080-081-089-090-097-098-221300-
SOUTHWEST MINNESOTA

CITY           SKY/WX    TMP DP  RH WIND       PRES   REMARKS
FAIRMONT       CLEAR     36  33  89 S9        29.60F
JACKSON        CLEAR     39  32  75 SW6       29.60F
LUVERNE        CLEAR     34  32  93 NW5       29.61S WCI  30
MARSHALL       PTCLDY    40  37  89 N6        29.60R
6HR MIN TEMP:  39; 6HR MAX TEMP:  52; 6HR PCP:  0.01;

MONTEVIDEO     CLOUDY    39  39 100 CALM      29.61F
PIPESTONE      CLOUDY    41  32  70 S6        29.59S
REDWOOD FALLS  MOCLDY    40  37  89 NW3       29.59R
TRACY          PTCLDY    43  38  80 SW8       29.59S
WINDOM         CLOUDY    39  36  87 S5        29.59F
WORTHINGTON    CLEAR     39  32  76 S7        29.60F
$$

IAZ001>003-012>014-020>022-031-032-NEZ013-014-SDZ071-221300-
NORTHWEST IOWA

CITY           SKY/WX    TMP DP  RH WIND       PRES   REMARKS
CHEROKEE       PTCLDY    41  34  76 S6        29.63F
DENISON        PTCLDY    45  36  70 S7        29.66F
ESTHERVILLE    CLEAR     38  33  82 S10       29.59F
LE MARS        CLEAR     37  34  87 S10       29.64R
ORANGE CITY    CLEAR     37  36  93 S5        29.62S
SHELDON        CLEAR     36  36 100 SE6       29.60F
SIOUX CITY     CLEAR     37  31  78 E6        29.64F
6HR MIN TEMP:  35; 6HR MAX TEMP:  54;

SPENCER        CLEAR     33  30  88 S6        29.61F WCI  28
6HR MIN TEMP:  31; 6HR MAX TEMP:  48;

STORM LAKE     PTCLDY    45  34  65 SW15      29.64F
$$

ABBREVIATIONS USED IN REMARKS
   TC - TEMPERATURE IN CELSIUS
  WCI - WIND CHILL INDEX
   HX - HEAT INDEX
  VSB - VISIBILITY





USA.gov is the U.S. government's official web portal to all federal, state and local government web resources and services.